| time (UTC) | temp F | wind direction | speed MPH | gust MPH | rain 1hr in | rain 24hr in | rain mn in | humidity % | barometer mb |
| 20260903202056 | 56 | 5 | 4.0 | 13.0 | 0.00 | 0.00 | 0.00 | 56 | 1017.4 |
| 20260903201606 | 57 | 15 | 3.0 | 12.0 | 0.00 | 0.00 | 0.00 | 54 | 1017.5 |
| 20260903201057 | 57 | 15 | 3.0 | 11.0 | 0.00 | 0.00 | 0.00 | 54 | 1017.6 |
| 20260903200556 | 57 | 16 | 3.0 | 11.0 | 0.00 | 0.00 | 0.00 | 54 | 1017.7 |
| 20260903200108 | 57 | 16 | 1.0 | 12.0 | 0.00 | 0.00 | 0.00 | 54 | 1017.6 |
| 20260903195557 | 57 | 15 | 3.0 | 12.0 | 0.00 | 0.00 | 0.00 | 54 | 1017.6 |
| 20260903195057 | 57 | 15 | 2.0 | 12.0 | 0.00 | 0.00 | 0.00 | 54 | 1017.9 |
| 20260903194606 | 57 | 12 | 1.0 | 8.0 | 0.00 | 0.00 | 0.00 | 53 | 1017.9 |
| 20260903194056 | 57 | 15 | 2.0 | 8.0 | 0.00 | 0.00 | 0.00 | 54 | 1017.7 |
| 20260903193556 | 57 | 9 | 3.0 | 8.0 | 0.00 | 0.00 | 0.00 | 53 | 1018.1 |
| 20260903193103 | 57 | 15 | 2.0 | 8.0 | 0.00 | 0.00 | 0.00 | 52 | 1018.0 |
| 20260903192557 | 57 | 15 | 1.0 | 9.0 | 0.00 | 0.00 | 0.00 | 54 | 1018.0 |
| 20260903192058 | 57 | 5 | 2.0 | 9.0 | 0.00 | 0.00 | 0.00 | 51 | 1018.1 |
| 20260903191606 | 57 | 15 | 3.0 | 9.0 | 0.00 | 0.00 | 0.00 | 52 | 1018.1 |
| 20260903191056 | 57 | 15 | 2.0 | 8.0 | 0.00 | 0.00 | 0.00 | 51 | 1018.2 |
| 20260903190556 | 57 | 15 | 3.0 | 9.0 | 0.00 | 0.00 | 0.00 | 51 | 1018.2 |
| 20260903190104 | 57 | 16 | 3.0 | 14.0 | 0.00 | 0.00 | 0.00 | 52 | 1018.3 |
| 20260903185556 | 57 | 15 | 4.0 | 14.0 | 0.00 | 0.00 | 0.00 | 51 | 1018.2 |
| 20260903185056 | 57 | 15 | 2.0 | 12.0 | 0.00 | 0.00 | 0.00 | 51 | 1018.3 |
| 20260903184601 | 57 | 9 | 3.0 | 12.0 | 0.00 | 0.00 | 0.00 | 50 | 1018.4 |
| 20260903184056 | 58 | 15 | 4.0 | 12.0 | 0.00 | 0.00 | 0.00 | 49 | 1018.4 |
| 20260903183556 | 58 | 15 | 2.0 | 12.0 | 0.00 | 0.00 | 0.00 | 48 | 1018.4 |
| 20260903183104 | 59 | 15 | 2.0 | 7.0 | 0.00 | 0.00 | 0.00 | 49 | 1018.4 |
| 20260903182557 | 60 | 15 | 2.0 | 9.0 | 0.00 | 0.00 | 0.00 | 46 | 1018.4 |
| 20260903182056 | 60 | 360 | 3.0 | 9.0 | 0.00 | 0.00 | 0.00 | 47 | 1018.4 |
| 20260903181603 | 60 | 17 | 4.0 | 10.0 | 0.00 | 0.00 | 0.00 | 45 | 1018.5 |
| 20260903181056 | 60 | 16 | 2.0 | 10.0 | 0.00 | 0.00 | 0.00 | 47 | 1018.3 |
| 20260903180557 | 59 | 11 | 3.0 | 11.0 | 0.00 | 0.00 | 0.00 | 47 | 1018.4 |
| 20260903180105 | 59 | 15 | 3.0 | 11.0 | 0.00 | 0.00 | 0.00 | 45 | 1018.5 |
| 20260903175557 | 59 | 15 | 4.0 | 10.0 | 0.00 | 0.00 | 0.00 | 46 | 1018.3 |
| 20260903175056 | 59 | 15 | 3.0 | 11.0 | 0.00 | 0.00 | 0.00 | 47 | 1018.3 |
| 20260903174600 | 58 | 13 | 2.0 | 14.0 | 0.00 | 0.00 | 0.00 | 48 | 1018.3 |
| 20260903174055 | 57 | 15 | 3.0 | 14.0 | 0.00 | 0.00 | 0.00 | 47 | 1018.4 |
| 20260903173557 | 57 | 15 | 4.0 | 14.0 | 0.00 | 0.00 | 0.00 | 49 | 1018.5 |
| 20260903173103 | 57 | 16 | 3.0 | 11.0 | 0.00 | 0.00 | 0.00 | 48 | 1018.4 |
| 20260903172556 | 57 | 14 | 3.0 | 11.0 | 0.00 | 0.00 | 0.00 | 48 | 1018.3 |
| 20260903172055 | 57 | 16 | 2.0 | 11.0 | 0.00 | 0.00 | 0.00 | 48 | 1018.5 |
| 20260903171617 | 56 | 16 | 3.0 | 11.0 | 0.00 | 0.00 | 0.00 | 49 | 1018.4 |
| 20260903171056 | 56 | 15 | 1.0 | 10.0 | 0.00 | 0.00 | 0.00 | 50 | 1018.5 |
| 20260903170557 | 56 | 121 | 2.0 | 10.0 | 0.00 | 0.00 | 0.00 | 50 | 1018.7 |
| 20260903170107 | 55 | 15 | 3.0 | 10.0 | 0.00 | 0.00 | 0.00 | 48 | 1018.7 |
| 20260903165556 | 55 | 15 | 3.0 | 10.0 | 0.00 | 0.00 | 0.00 | 51 | 1018.7 |
| 20260903165100 | 55 | 16 | 2.0 | 10.0 | 0.00 | 0.00 | 0.00 | 50 | 1018.6 |
| 20260903164618 | 55 | 9 | 3.0 | 9.0 | 0.00 | 0.00 | 0.00 | 51 | 1018.7 |
| 20260903164056 | 55 | 15 | 3.0 | 9.0 | 0.00 | 0.00 | 0.00 | 49 | 1018.7 |
| 20260903163556 | 55 | 15 | 2.0 | 10.0 | 0.00 | 0.00 | 0.00 | 49 | 1018.7 |
| 20260903163102 | 55 | 9 | 3.0 | 14.0 | 0.00 | 0.00 | 0.00 | 49 | 1018.8 |
| 20260903162557 | 54 | 16 | 2.0 | 14.0 | 0.00 | 0.00 | 0.00 | 49 | 1018.7 |
| 20260903162057 | 54 | 13 | 2.0 | 13.0 | 0.00 | 0.00 | 0.00 | 47 | 1018.7 |
| 20260903161603 | 54 | 5 | 2.0 | 9.0 | 0.00 | 0.00 | 0.00 | 48 | 1018.8 |
| 20260903161056 | 54 | 15 | 2.0 | 7.0 | 0.00 | 0.00 | 0.00 | 46 | 1018.6 |
| 20260903160556 | 54 | 9 | 2.0 | 9.0 | 0.00 | 0.00 | 0.00 | 46 | 1018.8 |
| 20260903160128 | 54 | 15 | 2.0 | 9.0 | 0.00 | 0.00 | 0.00 | 45 | 1018.7 |
| 20260903155602 | 53 | 9 | 2.0 | 9.0 | 0.00 | 0.00 | 0.00 | 45 | 1019.0 |
| 20260903155056 | 53 | 16 | 2.0 | 9.0 | 0.00 | 0.00 | 0.00 | 46 | 1019.0 |
| 20260903154610 | 53 | 5 | 1.0 | 7.0 | 0.00 | 0.00 | 0.00 | 45 | 1019.0 |
| 20260903154059 | 53 | 15 | 2.0 | 8.0 | 0.00 | 0.00 | 0.00 | 44 | 1019.0 |
| 20260903153556 | 53 | 5 | 1.0 | 8.0 | 0.00 | 0.00 | 0.00 | 43 | 1019.2 |
| 20260903153108 | 53 | 15 | 3.0 | 8.0 | 0.00 | 0.00 | 0.00 | 42 | 1019.2 |
| 20260903152556 | 53 | 15 | 2.0 | 8.0 | 0.00 | 0.00 | 0.00 | 43 | 1019.3 |
| 20260903152057 | 53 | 15 | 2.0 | 8.0 | 0.00 | 0.00 | 0.00 | 42 | 1019.1 |
| 20260903151608 | 53 | 15 | 3.0 | 8.0 | 0.00 | 0.00 | 0.00 | 40 | 1019.1 |
| 20260903151057 | 53 | 13 | 2.0 | 9.0 | 0.00 | 0.00 | 0.00 | 41 | 1019.1 |
| 20260903150557 | 53 | 9 | 2.0 | 9.0 | 0.00 | 0.00 | 0.00 | 41 | 1019.1 |
| 20260903150111 | 53 | 15 | 2.0 | 7.0 | 0.00 | 0.00 | 0.00 | 39 | 1019.1 |
| 20260903145558 | 53 | 16 | 1.0 | 8.0 | 0.00 | 0.00 | 0.00 | 41 | 1019.0 |
| 20260903145056 | 52 | 9 | 2.0 | 12.0 | 0.00 | 0.00 | 0.00 | 40 | 1019.1 |
| 20260903144607 | 52 | 15 | 3.0 | 12.0 | 0.00 | 0.00 | 0.00 | 40 | 1018.8 |
| 20260903144059 | 52 | 14 | 2.0 | 13.0 | 0.00 | 0.00 | 0.00 | 40 | 1018.8 |
| 20260903143558 | 52 | 5 | 2.0 | 13.0 | 0.00 | 0.00 | 0.00 | 40 | 1018.9 |
| 20260903143112 | 52 | 15 | 2.0 | 13.0 | 0.00 | 0.00 | 0.00 | 38 | 1018.9 |
| 20260903142556 | 52 | 16 | 1.0 | 7.0 | 0.00 | 0.00 | 0.00 | 38 | 1018.7 |
| 20260903142056 | 52 | 15 | 2.0 | 10.0 | 0.00 | 0.00 | 0.00 | 37 | 1018.7 |
| 20260903141614 | 52 | 13 | 3.0 | 10.0 | 0.00 | 0.00 | 0.00 | 38 | 1018.7 |
| 20260903141057 | 52 | 15 | 2.0 | 9.0 | 0.00 | 0.00 | 0.00 | 37 | 1018.8 |
| 20260903140557 | 52 | 16 | 2.0 | 10.0 | 0.00 | 0.00 | 0.00 | 37 | 1018.8 |
| 20260903140107 | 52 | 15 | 2.0 | 10.0 | 0.00 | 0.00 | 0.00 | 38 | 1018.7 |
| 20260903135556 | 51 | 16 | 2.0 | 10.0 | 0.00 | 0.00 | 0.00 | 38 | 1018.7 |
| 20260903135056 | 51 | 15 | 2.0 | 9.0 | 0.00 | 0.00 | 0.00 | 37 | 1018.6 |
| 20260903134605 | 51 | 15 | 3.0 | 8.0 | 0.00 | 0.00 | 0.00 | 37 | 1018.5 |
| 20260903134056 | 51 | 15 | 3.0 | 7.0 | 0.00 | 0.00 | 0.00 | 40 | 1018.5 |
| 20260903133556 | 51 | 15 | 2.0 | 7.0 | 0.00 | 0.00 | 0.00 | 40 | 1018.6 |